Fairchild AFB, WA

4:38 PM PST on January 18, 2017 (GMT -0800)
Fairchild Air Force Base

Weather History for KSKA - June, 2013

Change the Weather History Date:

Sunday, June 30, 2013

  Actual Average Record
Temperature  
Mean Temperature 73 °F -  
Max Temperature 88 °F 74 °F 94 °F (2008)
Min Temperature 59 °F 50 °F 43 °F (2010)
Cooling Degree Days 8    
Growing Degree Days 23 (Base 50)    
Moisture  
Dew Point 58 °F    
Average Humidity 58    
Maximum Humidity 100    
Minimum Humidity 31    
Precipitation  
Precipitation 0.00 in - - ()
Sea Level Pressure  
Sea Level Pressure 30.04 in    
Wind  
Wind Speed 4 mph (NNW)    
Max Wind Speed 8 mph    
Max Gust Speed -    
Visibility 10 miles    
Events Rain    
Averages and records for this station are not official NWS values.
T = Trace of Precipitation, MM = Missing Value Source: NWS Daily Summary

Daily Weather History Graph

Daily Weather History Graph

Search for Another Location

Airport or City:

Trip Planner

Search our weather history database for the weather conditions in past years. The results will help you decide how hot, cold, wet, or windy it might be!

Date:

Astronomy

Jun. 30, 2013 Rise Set
Actual Time 4:56 AM PDT 8:52 PM PDT
Civil Twilight 4:16 AM PDT 9:32 PM PDT
Nautical Twilight 3:20 AM PDT 10:27 PM PDT
Astronomical Twilight 1:53 AM PDT 11:54 PM PDT
Moon 12:19 AM PDT (6/30) 1:52 PM PDT (6/30)
Length of Visible Light 17h 16m
Length of Day
15h 55m
Last Quarter, 44% of the Moon is Illuminated
Jun 30
Last Quarter
Jul 8
New
Jul 15
First Quarter
Jul 22
Full
Jul 29
Last Quarter

Hourly Weather History & Observations

Time (PDT) Temp. Heat Index Dew Point Humidity Pressure Visibility Wind Dir Wind Speed Gust Speed Precip Events Conditions
12:58 AM 60.4 °F - 58.3 °F 93% 30.04 in 10.0 mi WSW 2.3 mph - N/A   Clear
1:58 AM 60.8 °F - 59.0 °F 94% 30.04 in 10.0 mi WNW 2.3 mph - N/A   Clear
2:58 AM 59.0 °F - 57.9 °F 96% 30.05 in 10.0 mi NW 5.8 mph - N/A   Clear
3:58 AM 61.0 °F - 60.1 °F 97% 30.04 in 10.0 mi North 4.6 mph - N/A   Clear
4:58 AM 60.4 °F - 59.9 °F 98% 30.05 in 10.0 mi NNE 4.6 mph - N/A   Clear
5:58 AM 61.2 °F - 61.2 °F 100% 30.06 in 10.0 mi NNE 2.3 mph - N/A   Clear
6:58 AM 64.8 °F - 61.9 °F 90% 30.07 in 10.0 mi NE 5.8 mph - N/A   Clear
7:58 AM 68.4 °F - 61.2 °F 78% 30.07 in 10.0 mi NE 6.9 mph - N/A   Clear
8:58 AM 71.2 °F - 61.0 °F 70% 30.08 in 10.0 mi NNE 5.8 mph - N/A   Clear
9:58 AM 74.3 °F - 62.4 °F 66% 30.07 in 10.0 mi North 6.9 mph - N/A   Clear
10:58 AM 77.2 °F - 62.1 °F 59% 30.08 in 10.0 mi Variable 5.8 mph - N/A   Clear
11:58 AM 80.6 °F 81.7 °F 61.9 °F 53% 30.06 in 10.0 mi Variable 4.6 mph - N/A   Clear
12:58 PM 83.1 °F 82.9 °F 58.3 °F 43% 30.07 in 10.0 mi Variable 2.3 mph - N/A   Clear
1:58 PM 85.3 °F 84.1 °F 56.1 °F 37% 30.06 in 10.0 mi NNW 4.6 mph - N/A   Clear
2:58 PM 85.6 °F 84.5 °F 56.5 °F 37% 30.04 in 10.0 mi Calm Calm - N/A   Clear
3:47 PM 87.8 °F 85.7 °F 53.6 °F 31% 30.08 in 10.0 mi Variable 2.3 mph - N/A Rain Light Rain
3:55 PM 86.0 °F 84.2 °F 53.6 °F 33% 30.07 in 10.0 mi Variable 1.2 mph - N/A   Clear
3:58 PM 86.7 °F 84.6 °F 53.1 °F 31% 30.04 in 10.0 mi Variable 1.2 mph - 0.00 in   Clear
4:42 PM 86.0 °F - 51.8 °F 31% 30.06 in 10.0 mi South 1.2 mph - N/A   Light Drizzle
4:45 PM 86.0 °F - 51.8 °F 31% 30.06 in 10.0 mi Calm Calm - N/A   Clear
4:50 PM 86.0 °F 84.2 °F 53.6 °F 33% 30.06 in 10.0 mi NE 2.3 mph - N/A   Light Drizzle
4:52 PM 87.8 °F 85.7 °F 53.6 °F 31% 30.06 in 10.0 mi Variable 2.3 mph - N/A   Clear
4:58 PM 87.1 °F 84.9 °F 53.1 °F 31% 30.02 in 10.0 mi Calm Calm - 0.00 in   Clear
5:58 PM 86.7 °F 85.6 °F 57.6 °F 37% 30.01 in 10.0 mi SW 8.1 mph - N/A   Clear
6:58 PM 85.8 °F 84.7 °F 56.7 °F 37% 30.00 in 10.0 mi West 4.6 mph - N/A   Clear
7:58 PM 81.7 °F 82.7 °F 62.4 °F 52% 29.99 in 10.0 mi WNW 4.6 mph - N/A   Clear
8:58 PM 76.3 °F - 59.9 °F 57% 29.99 in 10.0 mi NW 6.9 mph - N/A   Clear
9:58 PM 74.1 °F - 56.5 °F 54% 30.00 in 10.0 mi NW 5.8 mph - N/A   Clear
10:58 PM 67.3 °F - 60.1 °F 78% 30.01 in 10.0 mi WNW 5.8 mph - N/A   Clear
11:58 PM 69.6 °F - 55.8 °F 61% 30.00 in 10.0 mi NNW 5.8 mph - N/A   Clear